Printer-friendly version

IAU Minor Planet Center

Minor Planet Center

MPEC 2010-E37 : 2010 ES12

The following Minor Planet Electronic Circular may be linked-to from your own Web pages, but must not otherwise be redistributed electronically.

A form allowing access to any MPEC is at the bottom of this page.


Read MPEC 2010-E36 Read MPEC 2010-E38


M.P.E.C. 2010-E37                                Issued 2010 Mar. 10, 11:22 UT

     The Minor Planet Electronic Circulars contain information on unusual
         minor planets and routine data on comets.  They are published
   on behalf of Commission 20 of the International Astronomical Union by the
          Minor Planet Center, Smithsonian Astrophysical Observatory,
                          Cambridge, MA 02138, U.S.A.

             Prepared using the Tamkin Foundation Computer Network

                              MPC@CFA.HARVARD.EDU
       URL http://www.minorplanetcenter.org/iau/mpc.html  ISSN 1523-6714

                                   2010 ES12

Observations:
     K10E12S* C2010 03 09.97414 12 35 58.43 +06 51 31.7          19.6 V EE037J75
     K10E12S  C2010 03 09.98850 12 35 56.63 +06 50 49.4          19.8 V EE037J75
     K10E12S  C2010 03 10.00286 12 35 54.86 +06 50 06.0          19.3 V EE037J75
     K10E12S  C2010 03 10.03005 12 35 51.39 +06 48 45.6          19.5 V EE037J75
     K10E12S  C2010 03 10.03651 12 35 50.57 +06 48 26.6          19.4 V EE037J75
     K10E12S  C2010 03 10.04308 12 35 49.71 +06 48 07.2          19.6 V EE037J75
     K10E12S KC2010 03 10.04713 12 35 46.51 +06 47 19.5          19.4 R EE037113
     K10E12S KC2010 03 10.05082 12 35 46.20 +06 47 08.2          19.1 R EE037113
     K10E12S KC2010 03 10.05451 12 35 45.85 +06 46 57.5          19.7 R EE037113
     K10E12S  C2010 03 10.11157 12 35 41.03 +06 44 46.0          19.6 V EE037J75
     K10E12S  C2010 03 10.11823 12 35 40.18 +06 44 26.5          19.6 V EE037J75
     K10E12S  C2010 03 10.12479 12 35 39.41 +06 44 07.4          19.2 V EE037J75
     K10E12S  C2010 03 10.20694 12 35 48.28 +06 40 26.5          20.1 R EE037926
     K10E12S  C2010 03 10.21282 12 35 47.69 +06 40 10.4          19.8 R EE037926
     K10E12S KC2010 03 10.25233 12 35 40.53 +06 38 05.5          19.5 R EE037H36
     K10E12S KC2010 03 10.26214 12 35 39.39 +06 37 39.0          19.9 R EE037H36
     K10E12S KC2010 03 10.26736 12 35 38.78 +06 37 24.6          19.8 R EE037H36

Observer details:
113 Volkssternwarte Drebach, Schoenbrunn.  Observer A. Knoefel.  0.5-m f/6.7
    reflector + CCD.
926 Tenagra II Observatory.  Observers P. R. Holvorcem, M. Schwartz.  Measurer
    P. R. Holvorcem.  0.81-m f/7 Ritchey-Chretien + CCD.
H36 Sandlot Observatory, Scranton.  Observer G. Hug.  0.56-m reflector + CCD.
J75 OAM Observatory, La Sagra.  Observers S. Sanchez, J. Nomen, R. Stoss,
    J. Rodriguez, M. Hurtado, W. K. Y. Yeung.  0.40-m f/10 reflector + CCD,
    0.45-m f/2.8 reflector + CCD.

Orbital elements:
2010 ES12                                                Earth MOID = 0.0033 AU
Epoch 2010 Jan. 4.0 TT = JDT 2455200.5                  MPC
M 353.45381              (2000.0)            P               Q
n   0.27767478     Peri.  312.36775     -0.35828536     -0.93351083
a   2.3269038      Node   158.61541     +0.86727557     -0.33824529
e   0.6396448      Incl.    2.16157     +0.34563664     -0.11894395
P   3.55           H   25.6           G   0.15           U   7
Residuals in seconds of arc
100309 J75  0.7+  0.2+    100310 113  0.5-  0.4+    100310 926  0.7+  0.3+
100309 J75  0.0   0.6+    100310 113  1.1+  0.0     100310 926  0.6+  0.1+
100310 J75  0.2+  0.1-    100310 113  2.2+  0.3+    100310 H36  0.0   0.3+
100310 J75  0.0   0.1-    100310 J75  0.3+  0.1+    100310 H36  0.1+  0.3+
100310 J75  0.1+  0.0     100310 J75  0.2-  0.1+    100310 H36  0.2+  0.0
100310 J75  0.1-  0.0     100310 J75  0.3+  0.2+

Ephemeris:
2010 ES12                a,e,i = 2.33, 0.64, 2                   q = 0.8385
Date    TT    R. A. (2000) Decl.     Delta      r     Elong.  Phase     V
2010 03 05    13 46.60   +52 12.3    0.00433  0.994   122.9    56.8    15.8
2010 03 06    12 50.37   +19 48.0    0.0111   1.002   150.9    28.8    17.1
2010 03 07    12 42.21   +12 34.3    0.0187   1.009   155.9    23.6    18.1
2010 03 08    12 38.90   +09 33.1    0.0265   1.017   158.2    21.3    18.8
2010 03 09    12 37.05   +07 54.2    0.0343   1.025   159.7    19.6    19.3
2010 03 10    12 35.85   +06 52.1    0.0422   1.033   161.0    18.2    19.7
2010 03 11    12 34.97   +06 09.5    0.0501   1.041   162.1    17.0    20.1
2010 03 12    12 34.27   +05 38.4    0.0581   1.049   163.2    15.9    20.4
2010 03 13    12 33.70   +05 14.8    0.0660   1.058   164.3    14.8    20.6
2010 03 14    12 33.20   +04 56.1    0.0740   1.066   165.3    13.7    20.9
2010 03 15    12 32.76   +04 41.1    0.0821   1.074   166.3    12.7    21.1
2010 03 16    12 32.36   +04 28.6    0.0901   1.083   167.2    11.7    21.3
2010 03 17    12 32.00   +04 18.1    0.0983   1.091   168.2    10.8    21.4
2010 03 18    12 31.65   +04 09.1    0.106    1.100   169.1     9.9    21.6
2010 03 19    12 31.33   +04 01.2    0.115    1.109   169.9     9.0    21.7
2010 03 20    12 31.03   +03 54.3    0.123    1.117   170.7     8.2    21.9
2010 03 21    12 30.74   +03 48.1    0.131    1.126   171.5     7.5    22.0
2010 03 22    12 30.47   +03 42.4    0.140    1.135   172.2     6.8    22.1
2010 03 23    12 30.22   +03 37.2    0.148    1.144   172.8     6.2    22.2
2010 03 24    12 29.98   +03 32.4    0.157    1.153   173.3     5.8    22.3
2010 03 25    12 29.76   +03 27.9    0.165    1.162   173.7     5.4    22.5

Timothy B. Spahr             (C) Copyright 2010 MPC           M.P.E.C. 2010-E37

Read MPEC 2010-E36 Read MPEC 2010-E38


MPEC number:

Enter an
MPEC number in one of the following forms:
  • 1997-B01 (the full form)
  • J97B01 (the packed version of the full form)
  • B01 (the abbreviated form)

Valid HTML 4.01!